TimeEDT,TemperatureF,Dew PointF,Humidity,Sea Level PressureIn,VisibilityMPH,Wind Direction,Wind SpeedMPH,Gust SpeedMPH,PrecipitationIn,Events,Conditions,WindDirDegrees,DateUTC
12:15 AM,57.2,53.6,88,30.00,10.0,Calm,Calm,-,N/A,,Mostly Cloudy,0,2013-05-09 04:15:00
12:35 AM,57.2,53.6,88,29.99,8.0,Calm,Calm,-,N/A,,Overcast,0,2013-05-09 04:35:00
12:55 AM,57.2,53.6,88,29.97,7.0,Calm,Calm,-,N/A,,Overcast,0,2013-05-09 04:55:00
1:15 AM,57.2,53.6,88,29.97,7.0,SE,5.8,-,N/A,,Mostly Cloudy,130,2013-05-09 05:15:00
1:35 AM,57.2,53.6,88,29.96,5.0,Calm,Calm,-,0.02,,Mostly Cloudy,0,2013-05-09 05:35:00
1:55 AM,57.2,53.6,88,29.95,5.0,ENE,3.5,-,0.02,,Mostly Cloudy,60,2013-05-09 05:55:00
2:15 AM,57.2,53.6,88,29.94,4.0,East,4.6,-,0.02,,Overcast,80,2013-05-09 06:15:00
2:35 AM,57.2,53.6,88,29.93,5.0,East,6.9,-,0.05,,Mostly Cloudy,90,2013-05-09 06:35:00
2:55 AM,55.4,53.6,94,29.93,9.0,SE,6.9,-,0.05,,Mostly Cloudy,130,2013-05-09 06:55:00
3:15 AM,55.4,53.6,94,29.93,10.0,SE,5.8,-,N/A,,Mostly Cloudy,130,2013-05-09 07:15:00
3:35 AM,55.4,53.6,94,29.93,10.0,ESE,5.8,-,N/A,,Overcast,120,2013-05-09 07:35:00
3:55 AM,55.4,53.6,94,29.93,10.0,SSE,4.6,-,N/A,,Mostly Cloudy,150,2013-05-09 07:55:00
4:15 AM,55.4,53.6,94,29.92,9.0,SE,4.6,-,N/A,,Overcast,140,2013-05-09 08:15:00
4:35 AM,55.4,53.6,94,29.93,9.0,SSE,4.6,-,N/A,,Overcast,150,2013-05-09 08:35:00
4:55 AM,57.2,53.6,88,29.93,10.0,SSE,6.9,-,N/A,,Overcast,150,2013-05-09 08:55:00
5:15 AM,57.2,53.6,88,29.92,10.0,SSE,6.9,-,N/A,,Overcast,160,2013-05-09 09:15:00
5:35 AM,57.2,53.6,88,29.92,10.0,South,4.6,-,N/A,,Overcast,190,2013-05-09 09:35:00
5:55 AM,55.4,53.6,94,29.92,9.0,South,3.5,-,N/A,,Overcast,190,2013-05-09 09:55:00
6:15 AM,55.4,53.6,94,29.93,6.0,SSE,4.6,-,N/A,,Overcast,160,2013-05-09 10:15:00
6:35 AM,55.4,53.6,94,29.93,5.0,Calm,Calm,-,N/A,,Overcast,0,2013-05-09 10:35:00
6:55 AM,57.2,53.6,88,29.94,5.0,SSE,5.8,-,N/A,,Overcast,150,2013-05-09 10:55:00
7:15 AM,57.2,55.4,94,29.94,5.0,South,5.8,-,N/A,,Overcast,170,2013-05-09 11:15:00
7:35 AM,57.2,55.4,94,29.95,5.0,South,5.8,-,N/A,,Overcast,180,2013-05-09 11:35:00
7:55 AM,57.2,55.4,94,29.96,6.0,SSW,5.8,-,N/A,,Overcast,200,2013-05-09 11:55:00
8:15 AM,57.2,55.4,94,29.96,-9999.0,SW,4.6,-,N/A,,Overcast,220,2013-05-09 12:15:00
8:35 AM,57.2,55.4,94,29.96,-9999.0,WSW,4.6,-,N/A,,Overcast,240,2013-05-09 12:35:00
8:55 AM,59.0,55.4,88,29.97,-9999.0,West,5.8,-,N/A,,Overcast,260,2013-05-09 12:55:00
9:15 AM,60.8,57.2,88,29.96,-9999.0,West,6.9,-,0.01,,Overcast,270,2013-05-09 13:15:00
9:35 AM,60.8,55.4,82,29.96,-9999.0,West,6.9,-,0.01,,Overcast,280,2013-05-09 13:35:00
9:55 AM,60.8,55.4,82,29.97,-9999.0,West,9.2,-,0.01,,Mostly Cloudy,270,2013-05-09 13:55:00
10:15 AM,62.6,55.4,77,29.97,-9999.0,WNW,10.4,-,N/A,,Scattered Clouds,290,2013-05-09 14:15:00
10:35 AM,60.8,55.4,82,29.98,-9999.0,WNW,9.2,-,N/A,,Scattered Clouds,290,2013-05-09 14:35:00
10:55 AM,60.8,55.4,82,29.98,-9999.0,West,10.4,-,N/A,,Mostly Cloudy,280,2013-05-09 14:55:00
11:35 AM,62.6,55.4,77,29.99,-9999.0,WNW,12.7,-,N/A,,Partly Cloudy,290,2013-05-09 15:35:00
11:55 AM,64.4,53.6,68,29.99,-9999.0,WNW,10.4,16.1,N/A,,Clear,300,2013-05-09 15:55:00
12:15 PM,64.4,55.4,73,29.99,-9999.0,WNW,10.4,16.1,N/A,,Scattered Clouds,290,2013-05-09 16:15:00
12:35 PM,64.4,55.4,73,29.99,-9999.0,WNW,9.2,-,N/A,,Scattered Clouds,290,2013-05-09 16:35:00
1:15 PM,66.2,55.4,68,29.98,-9999.0,West,9.2,-,N/A,,Clear,260,2013-05-09 17:15:00
1:35 PM,66.2,55.4,68,29.97,-9999.0,West,10.4,-,N/A,,Clear,270,2013-05-09 17:35:00
1:55 PM,66.2,55.4,68,29.97,-9999.0,WSW,11.5,-,N/A,,Clear,240,2013-05-09 17:55:00
2:15 PM,68.0,55.4,64,29.97,-9999.0,WSW,10.4,-,N/A,,Clear,240,2013-05-09 18:15:00
2:35 PM,69.8,55.4,60,29.96,-9999.0,West,9.2,-,N/A,,Clear,260,2013-05-09 18:35:00
2:55 PM,69.8,53.6,56,29.96,-9999.0,WSW,8.1,-,N/A,,Clear,240,2013-05-09 18:55:00
3:15 PM,69.8,55.4,60,29.96,-9999.0,WSW,8.1,-,N/A,,Clear,250,2013-05-09 19:15:00
3:35 PM,69.8,55.4,60,29.96,-9999.0,WSW,9.2,-,N/A,,Clear,240,2013-05-09 19:35:00
3:55 PM,69.8,55.4,60,29.96,-9999.0,WSW,6.9,-,N/A,,Clear,240,2013-05-09 19:55:00
4:15 PM,69.8,53.6,56,29.96,-9999.0,WSW,5.8,-,N/A,,Scattered Clouds,240,2013-05-09 20:15:00
4:35 PM,69.8,55.4,60,29.96,-9999.0,South,12.7,-,N/A,,Scattered Clouds,170,2013-05-09 20:35:00
4:55 PM,69.8,55.4,60,29.96,-9999.0,SSE,10.4,-,N/A,,Clear,150,2013-05-09 20:55:00
5:15 PM,68.0,55.4,64,29.96,-9999.0,SE,9.2,-,N/A,,Clear,140,2013-05-09 21:15:00
5:35 PM,68.0,55.4,64,29.95,-9999.0,SSE,10.4,-,N/A,,Partly Cloudy,150,2013-05-09 21:35:00
5:55 PM,66.2,55.4,68,29.96,-9999.0,SSE,8.1,-,N/A,,Scattered Clouds,160,2013-05-09 21:55:00
6:15 PM,66.2,55.4,68,29.96,-9999.0,South,10.4,-,N/A,,Clear,170,2013-05-09 22:15:00
6:35 PM,66.2,55.4,68,29.95,-9999.0,South,9.2,-,N/A,,Scattered Clouds,170,2013-05-09 22:35:00
6:55 PM,64.4,55.4,73,29.96,-9999.0,SSE,6.9,-,N/A,,Scattered Clouds,160,2013-05-09 22:55:00
7:15 PM,64.4,55.4,73,29.96,-9999.0,South,4.6,-,N/A,,Scattered Clouds,170,2013-05-09 23:15:00
7:35 PM,62.6,53.6,72,29.96,-9999.0,SSE,5.8,-,N/A,,Clear,150,2013-05-09 23:35:00
7:55 PM,60.8,53.6,77,29.97,-9999.0,SSE,4.6,-,N/A,,Clear,160,2013-05-09 23:55:00
8:15 PM,60.8,53.6,77,29.97,-9999.0,SSE,3.5,-,N/A,,Clear,160,2013-05-10 00:15:00
8:35 PM,60.8,53.6,77,29.98,-9999.0,Calm,Calm,-,N/A,,Clear,0,2013-05-10 00:35:00
8:55 PM,59.0,53.6,82,29.98,-9999.0,Calm,Calm,-,N/A,,Clear,0,2013-05-10 00:55:00
9:15 PM,59.0,53.6,82,29.98,-9999.0,Calm,Calm,-,N/A,,Clear,0,2013-05-10 01:15:00
9:35 PM,59.0,53.6,82,29.99,-9999.0,Calm,Calm,-,N/A,,Clear,0,2013-05-10 01:35:00
9:55 PM,59.0,53.6,82,29.99,-9999.0,Calm,Calm,-,N/A,,Clear,0,2013-05-10 01:55:00
10:15 PM,60.8,53.6,77,29.99,-9999.0,SW,4.6,-,N/A,,Clear,220,2013-05-10 02:15:00
10:35 PM,62.6,55.4,77,30.00,-9999.0,Calm,Calm,-,N/A,,Clear,0,2013-05-10 02:35:00
10:55 PM,62.6,55.4,77,29.99,-9999.0,SSW,6.9,-,N/A,,Partly Cloudy,210,2013-05-10 02:55:00
11:15 PM,62.6,55.4,77,29.99,-9999.0,SSW,6.9,-,N/A,,Clear,210,2013-05-10 03:15:00
11:35 PM,62.6,55.4,77,29.99,-9999.0,SW,6.9,-,N/A,,Clear,220,2013-05-10 03:35:00
11:55 PM,62.6,55.4,77,29.99,-9999.0,SW,8.1,-,N/A,,Clear,230,2013-05-10 03:55:00